Volver al catálogo

FENGYUN 1C DEB

ActivoPO
NORAD 37415·DEBRIS·🇨🇳 China

Lanzado May 10, 1999 desde Taiyuan Satellite Launch Center

Loading…

Próximos Pases (próximas 24 horas)

TLE

EnvejeciendoSource: Space-Track

Época: Sep 7, 2026, 23:07 UTC

1 37415U 99025EGH 26250.96370607  .00000218  00000-0  30324-3 0  9994
2 37415  98.9841 338.7432 0284086 214.9140 143.3075 13.52240451659606

Sigue FENGYUN 1C DEB en tiempo real con AllMySat

Download on the App Store